Погода в Актюбинском

Россия / Республика Татарстан     54°48′49″N   52°48′05″E
темп.,
°C
ветер,
м/с
пор.,
м/с
влажн.,
%
обл.,
%
осадки,
мм/ч
давл.,
гПа
погр.,
м
7 мая, пт
пт700:00+9ююз338174 0.0 101931
03:00+8ю338250 0.0 101937
06:00+11ю387184 0.0 1019220
09:00+15ююз6855100 0.0 1019716
12:00+16ююз6848100 0.0 10181606
15:00+16ююз5853100 0.0 1017839
18:00+14ю41162100 0.0 1017397
21:00+13ю3867100 0.0 1017195
8 мая, сб
сб800:00+12ю2269100 0.0 101729
03:00+11ююз226965 0.0 101839
06:00+12ююз2371100 0.0 1018125
09:00+16юз3453100 0.0 1018796
12:00+18юз3445100 0.0 10172016
15:00+17ююз2354100 0.0 1017174
18:00+16ююв22575 0.0 101717
21:00+12ю22695 0.0 101712
9 мая, вс
вс900:00+11ююв22745 0.0 101718
03:00+10ююв33755 0.0 101726
06:00+13ююв35685 0.0 1017168
09:00+18ююв564795 0.0 10161051
12:00+20ю4440100 0.0 10162335
15:00+21ююз3437100 0.0 10152260
18:00+18ююз2252100 0.0 101621
21:00+16ююв335299 0.0 101752
10 мая, пн
пн1000:00+14ююв335699 0.0 101736
03:00+13ююз226399 0.0 101826
06:00+12с1179100 0.8 102053
09:00+17вюв0166100 0.9 1021476
12:00+15ссз5580100 0.6 1022400
15:00+11ссз6787100 1.9 1025465
18:00+8с71189100 0.1 1027462
21:00+7ссв6118990 0.2 1028581
11 мая, вт
вт1100:00+5ссв410930 0.0 1029382
03:00+4ссв379711 0.0 1030200
06:00+7св49825 0.0 1032418
09:00+12св575121 0.0 1032839
12:00+15св564220 0.0 10311195
15:00+16св45436 0.0 10311282
18:00+14св345728 0.0 1031113
21:00+11всв11625 0.0 103110